Flag for U.S.A. Weather past 2 weeks in Vancouver, Washington, U.S.A.

Now
79 °F

Sunny.


Feels Like: 80 °F
Forecast: 58 / 82 °F
Wind: 6 mph from North

Location: Vancouver - Pearson Airpark

Current Time: May 28, 2015 at 9:14:50 PM

Latest Report: May 28, 2015 at 7:53 PM


Visibility: 10 mi

Pressure: 29.94 "Hg

Humidity: 44%

Dew point: 55 °F

Location of VancouverLocation

Historic Weather in Vancouver — Graph

°F

Vancouver temperature yesterday

Maximum temperature yesterday: 79 °F (at 5:53 PM)
Minimum temperature yesterday: 55 °F (at 3:53 AM)
Average temperature yesterday: 64 °F

Past Weeks' High & Low Weather Summary

 TemperatureHumidityPressure
High84 °F (May 28, 4:53 PM)93% (May 28, 7:00 AM)30.19 "Hg (May 28, 7:00 AM)
Low46 °F (May 14, 3:53 AM)26% (May 28, 4:53 PM)29.77 "Hg (May 14, 6:53 PM)
Average60 °F70%30.00 "Hg
* Reported May 13 7:53 PM — May 28 7:53 PM, Vancouver, Weather by CustomWeather, © 2015

Note: Actual official high and low records may vary slightly from our data, if they occured in-between our weather recording intervals... More about our weather records

Advertising

Vancouver weather history for previous 24 hours

 ConditionsComfort  
Time TempWeatherWind HumidityBarometerVisibility
7:53 PM
Thu, May 28
79 °FSunny.6 mph44%29.94 "Hg10 mi
6:53 PM83 °FSunny.9 mph27%29.93 "Hg10 mi
5:53 PM84 °FSunny.8 mph35%29.94 "Hg10 mi
4:53 PM84 °FSunny.7 mph26%29.95 "Hg10 mi
3:53 PM82 °FSunny.7 mph32%29.96 "Hg10 mi
2:53 PM80 °FSunny.6 mph35%29.98 "Hg10 mi
1:53 PM77 °FSunny.6 mph45%30.00 "Hg10 mi
12:53 PM75 °FSunny.7 mph54%30.02 "Hg10 mi
11:53 AM70 °FSunny.7 mph59%30.04 "Hg10 mi
10:53 AM65 °FSunny.5 mph70%30.06 "Hg10 mi
9:53 AM61 °FSunny.5 mph78%30.07 "Hg10 mi
8:53 AM57 °FLow clouds.No wind87%30.08 "Hg10 mi
8:01 AM56 °FLow clouds.3 mph87%30.08 "Hg7 mi
7:00 AM54 °FLow clouds.3 mph93%30.07 "Hg7 mi
5:53 AM54 °FPassing clouds.No wind90%30.06 "Hg9 mi
4:53 AM55 °FClear.No wind87%30.04 "Hg10 mi
3:53 AM57 °FClear.No wind81%30.03 "Hg10 mi
2:53 AM58 °FClear.No wind78%30.03 "Hg10 mi
1:53 AM59 °FClear.No wind72%30.03 "Hg10 mi
12:53 AM60 °FClear.No wind69%30.03 "Hg10 mi
11:53 PM
Wed, May 27
63 °FClear.No wind63%30.02 "Hg10 mi
10:53 PM65 °FClear.No wind61%30.01 "Hg10 mi
9:53 PM68 °FClear.6 mph57%30.00 "Hg10 mi
Weather by CustomWeather, © 2015

See weather overviewHow to use our weather pages